FW7485 Weather Reports


Display with metric or nautical units.
time (UTC)temp
F
wind
direction
speed
MPH
gust
MPH
rain 1hr
in
rain 24hr
in
rain mn
in
humidity
%
barometer
mb
20260507134538 58 0 0.0 1.0 0.00 0.00 0.00 91 1020.6
20260507134021 58 97 0.0 2.0 0.00 0.00 0.00 92 1020.5
20260507133523 57 0 0.0 2.0 0.00 0.00 0.00 92 1020.6
20260507133045 57 0 0.0 4.0 0.00 0.00 0.00 92 1020.5
20260507132523 56 0 0.0 4.0 0.00 0.00 0.00 92 1020.5
20260507132020 56 0 0.0 0.0 0.00 0.00 0.00 92 1020.4
20260507131545 56 0 0.0 0.0 0.00 0.00 0.00 93 1020.5
20260507131022 56 0 0.0 0.0 0.00 0.00 0.00 93 1020.5
20260507130522 56 0 0.0 0.0 0.00 0.00 0.00 92 1020.4
20260507130057 56 0 0.0 0.0 0.00 0.00 0.00 92 1020.4
20260507125523 56 0 0.0 0.0 0.00 0.00 0.00 92 1020.3
20260507125021 56 0 0.0 0.0 0.00 0.00 0.00 92 1020.3
20260507124550 56 0 0.0 0.0 0.00 0.00 0.00 92 1020.2
20260507124022 56 0 0.0 0.0 0.00 0.00 0.00 92 1020.2
20260507123521 57 0 0.0 0.0 0.00 0.00 0.00 93 1020.1
20260507123048 56 0 0.0 0.0 0.00 0.00 0.00 92 1020.1
20260507122521 57 0 0.0 0.0 0.00 0.00 0.00 92 1020.0
20260507122021 57 0 0.0 0.0 0.00 0.00 0.00 93 1020.1
20260507121556 56 0 0.0 0.0 0.00 0.00 0.00 92 1020.1
20260507121021 56 0 0.0 0.0 0.00 0.00 0.00 92 1020.1
20260507120529 56 0 0.0 0.0 0.00 0.00 0.00 92 1020.0
20260507120045 56 0 0.0 0.0 0.00 0.00 0.00 92 1020.0
20260507115521 56 0 0.0 0.0 0.00 0.00 0.00 92 1020.0
20260507115024 56 0 0.0 0.0 0.00 0.00 0.00 92 1020.1
20260507114545 56 0 0.0 0.0 0.00 0.00 0.00 92 1020.0
20260507114020 56 0 0.0 0.0 0.00 0.00 0.00 92 1020.0
20260507113522 56 0 0.0 0.0 0.00 0.00 0.00 92 1019.9
20260507113040 56 0 0.0 0.0 0.00 0.00 0.00 92 1020.0
20260507112520 56 0 0.0 0.0 0.00 0.00 0.00 92 1020.1
20260507112021 56 0 0.0 0.0 0.00 0.00 0.00 92 1020.0
20260507111538 56 0 0.0 0.0 0.00 0.00 0.00 92 1020.1
20260507111021 56 0 0.0 0.0 0.00 0.00 0.00 92 1020.1
20260507110522 56 0 0.0 0.0 0.00 0.00 0.00 92 1020.1
20260507110036 56 0 0.0 0.0 0.00 0.00 0.00 92 1020.2
20260507105521 56 0 0.0 0.0 0.00 0.00 0.00 92 1020.1
20260507105022 57 0 0.0 0.0 0.00 0.00 0.00 92 1020.2
20260507104544 57 0 0.0 0.0 0.00 0.00 0.00 92 1020.2
20260507104021 57 0 0.0 0.0 0.00 0.00 0.00 91 1020.2
20260507103522 57 0 0.0 0.0 0.00 0.00 0.00 91 1020.3
20260507103044 57 0 0.0 0.0 0.00 0.00 0.00 91 1020.3
20260507102521 57 0 0.0 0.0 0.00 0.00 0.00 92 1020.3
20260507102021 57 0 0.0 0.0 0.00 0.00 0.00 92 1020.3
20260507101548 57 0 0.0 0.0 0.00 0.00 0.00 92 1020.4
20260507101026 57 0 0.0 0.0 0.00 0.00 0.00 92 1020.4
20260507100521 57 0 0.0 0.0 0.00 0.00 0.00 92 1020.3
20260507100049 57 0 0.0 0.0 0.00 0.00 0.00 92 1020.4
20260507095522 57 0 0.0 0.0 0.00 0.00 0.00 92 1020.4
20260507095021 57 0 0.0 0.0 0.00 0.00 0.00 92 1020.5
20260507094536 58 0 0.0 0.0 0.00 0.00 0.00 92 1020.4
20260507094020 58 0 0.0 0.0 0.00 0.00 0.00 92 1020.4
20260507093525 58 0 0.0 0.0 0.00 0.00 0.00 92 1020.5
20260507093043 58 0 0.0 0.0 0.00 0.00 0.00 92 1020.5
20260507092523 58 0 0.0 0.0 0.00 0.00 0.00 92 1020.5
20260507092020 58 0 0.0 0.0 0.00 0.00 0.00 92 1020.5
20260507091542 58 0 0.0 1.0 0.00 0.00 0.00 92 1020.6
20260507091022 58 0 0.0 1.0 0.00 0.00 0.00 92 1020.8
20260507090521 58 0 0.0 1.0 0.00 0.00 0.00 92 1020.7
20260507090047 57 0 0.0 0.0 0.00 0.00 0.00 91 1020.7
20260507085520 58 0 0.0 0.0 0.00 0.00 0.00 91 1020.8
20260507085021 58 0 0.0 0.0 0.00 0.00 0.00 91 1020.8
20260507084545 58 0 0.0 0.0 0.00 0.00 0.00 91 1020.9
20260507084021 58 0 0.0 0.0 0.00 0.00 0.00 91 1021.0
20260507083521 58 0 0.0 0.0 0.00 0.00 0.00 91 1021.0
20260507083051 58 0 0.0 0.0 0.00 0.00 0.00 91 1021.0
20260507082522 58 0 0.0 1.0 0.00 0.00 0.00 91 1021.1
20260507082020 58 0 0.0 1.0 0.00 0.00 0.00 91 1021.2
20260507081552 58 0 0.0 0.0 0.00 0.00 0.00 90 1021.1
20260507081021 59 0 0.0 1.0 0.00 0.00 0.00 90 1021.1
20260507080518 59 0 0.0 1.0 0.00 0.00 0.00 90 1021.2
20260507080045 59 0 0.0 1.0 0.00 0.00 0.00 90 1021.2
20260507075523 59 0 0.0 1.0 0.00 0.00 0.00 90 1021.2
20260507075021 59 0 0.0 1.0 0.00 0.00 0.00 90 1021.2
20260507074547 59 0 0.0 1.0 0.00 0.00 0.00 90 1021.3
20260507074020 59 0 0.0 1.0 0.00 0.00 0.00 90 1021.1
20260507073524 59 84 0.0 1.0 0.00 0.00 0.00 90 1021.2
20260507073050 59 30 0.0 2.0 0.00 0.00 0.00 90 1020.9
20260507072520 59 0 0.0 2.0 0.00 0.00 0.00 90 1021.0
20260507072019 59 0 0.0 2.0 0.00 0.00 0.00 90 1021.1
20260507071537 59 356 0.0 1.0 0.00 0.00 0.00 90 1021.1
20260507071021 59 0 0.0 0.0 0.00 0.00 0.00 90 1021.1
20260507070524 59 0 0.0 0.0 0.00 0.00 0.00 90 1021.1
20260507070046 59 0 0.0 0.0 0.00 0.00 0.00 90 1021.3
20260507065522 59 0 0.0 0.0 0.00 0.00 0.00 90 1021.3
20260507065019 60 0 0.0 0.0 0.00 0.00 0.00 89 1021.4
20260507064543 60 0 0.0 1.0 0.00 0.00 0.00 90 1021.4
20260507064020 60 0 0.0 2.0 0.00 0.00 0.00 89 1021.4
20260507063524 60 0 0.0 2.0 0.00 0.00 0.00 89 1021.4
20260507063048 60 30 0.0 2.0 0.00 0.00 0.00 89 1021.4
20260507062520 60 3 0.0 3.0 0.00 0.00 0.00 89 1021.6
20260507062020 60 342 1.0 3.0 0.00 0.00 0.00 89 1021.5
20260507061539 60 0 0.0 0.0 0.00 0.00 0.00 89 1021.5
20260507061023 60 0 0.0 0.0 0.00 0.00 0.00 89 1021.5
20260507060520 60 0 0.0 0.0 0.00 0.00 0.00 89 1021.5
20260507060038 60 0 0.0 0.0 0.00 0.00 0.00 89 1021.5
20260507055521 60 0 0.0 0.0 0.00 0.00 0.00 89 1021.5
20260507055020 60 0 0.0 0.0 0.00 0.00 0.00 89 1021.5
20260507054544 60 0 0.0 0.0 0.00 0.00 0.00 88 1021.5
20260507054021 60 0 0.0 0.0 0.00 0.00 0.00 88 1021.4
20260507053521 60 0 0.0 0.0 0.00 0.00 0.00 88 1021.5
20260507053044 60 0 0.0 2.0 0.00 0.00 0.00 88 1021.6
20260507052520 61 0 0.0 2.0 0.00 0.00 0.00 88 1021.5
20260507052022 61 305 0.0 2.0 0.00 0.00 0.00 88 1021.4
20260507051543 61 309 0.0 2.0 0.00 0.00 0.00 88 1021.5
20260507051021 61 0 0.0 2.0 0.00 0.00 0.00 87 1021.6
20260507050520 61 0 0.0 1.0 0.00 0.00 0.00 87 1021.6
20260507050041 61 0 0.0 2.0 0.00 0.00 0.00 87 1021.5
20260507045520 61 0 1.0 3.0 0.00 0.00 0.00 87 1021.5
20260507045020 61 0 0.0 3.0 0.00 0.00 0.00 86 1021.4
20260507044539 61 0 1.0 4.0 0.00 0.00 0.00 86 1021.5
20260507044020 61 321 0.0 4.0 0.00 0.00 0.00 86 1021.5
20260507043521 61 324 0.0 4.0 0.00 0.00 0.00 85 1021.4
20260507043044 61 329 1.0 4.0 0.00 0.00 0.00 85 1021.4
20260507042520 61 314 0.0 3.0 0.00 0.00 0.00 85 1021.5
20260507042019 61 0 0.0 3.0 0.00 0.00 0.00 85 1021.4
20260507041546 61 309 0.0 3.0 0.00 0.00 0.00 85 1021.4
20260507041020 61 285 1.0 3.0 0.00 0.00 0.00 85 1021.4
20260507040521 62 331 0.0 7.0 0.00 0.00 0.00 85 1021.3
20260507040044 62 0 1.0 7.0 0.00 0.00 0.00 85 1021.4
20260507035520 62 20 3.0 7.0 0.00 0.00 0.00 85 1021.3
20260507035021 62 335 3.0 6.0 0.00 0.00 0.00 85 1021.2
20260507034539 62 309 3.0 5.0 0.00 0.00 0.00 84 1021.2
20260507034021 62 311 2.0 5.0 0.00 0.00 0.00 84 1021.0
20260507033521 62 328 3.0 5.0 0.00 0.00 0.00 84 1021.1
20260507033046 62 313 2.0 5.0 0.00 0.00 0.00 83 1020.9
20260507032523 62 315 2.0 6.0 0.00 0.00 0.00 83 1020.9
20260507032019 62 330 2.0 6.0 0.00 0.00 0.00 83 1020.8
20260507031542 62 331 3.0 5.0 0.00 0.00 0.00 83 1020.9
20260507031024 62 314 2.0 6.0 0.00 0.00 0.00 82 1020.8
20260507030521 62 314 3.0 6.0 0.00 0.00 0.00 82 1020.8
20260507030046 63 330 3.0 8.0 0.00 0.00 0.00 82 1020.6
20260507025520 63 335 4.0 8.0 0.00 0.00 0.00 82 1020.6
20260507025020 63 289 4.0 7.0 0.00 0.00 0.00 81 1020.6
20260507024544 63 310 3.0 7.0 0.00 0.00 0.00 79 1020.6
20260507024020 64 319 3.0 7.0 0.00 0.00 0.00 79 1020.6
20260507023529 64 283 3.0 7.0 0.00 0.00 0.00 78 1020.6
20260507023042 64 331 3.0 8.0 0.00 0.00 0.00 77 1020.5
20260507022520 64 304 2.0 8.0 0.00 0.00 0.00 76 1020.4
20260507022019 64 328 4.0 8.0 0.00 0.00 0.00 75 1020.4
20260507021546 65 311 4.0 8.0 0.00 0.00 0.00 74 1020.5
20260507021023 65 315 4.0 9.0 0.00 0.00 0.00 74 1020.5
20260507020520 66 314 4.0 9.0 0.00 0.00 0.00 73 1020.4
20260507020041 66 311 3.0 8.0 0.00 0.00 0.00 72 1020.4
20260507015520 67 284 3.0 8.0 0.00 0.00 0.00 71 1020.4
20260507015020 67 311 3.0 6.0 0.00 0.00 0.00 69 1020.4
20260507014553 68 15 3.0 7.0 0.00 0.00 0.00 69 1020.3
20260507014021 68 311 2.0 8.0 0.00 0.00 0.00 66 1020.4
20260507013521 68 304 4.0 8.0 0.00 0.00 0.00 64 1020.4
20260507013048 68 321 4.0 8.0 0.00 0.00 0.00 65 1020.4
20260507012520 68 336 5.0 8.0 0.00 0.00 0.00 65 1020.4
20260507012020 68 314 3.0 9.0 0.00 0.00 0.00 66 1020.3
20260507011541 68 295 4.0 9.0 0.00 0.00 0.00 67 1020.4
20260507011020 68 311 5.0 8.0 0.00 0.00 0.00 67 1020.3
20260507010521 69 306 4.0 9.0 0.00 0.00 0.00 64 1020.3
20260507010038 69 23 4.0 9.0 0.00 0.00 0.00 65 1020.4
20260507005524 69 330 4.0 11.0 0.00 0.00 0.00 62 1020.3
20260507005020 69 12 5.0 11.0 0.00 0.00 0.00 63 1020.3
20260507004540 69 346 4.0 11.0 0.00 0.00 0.00 62 1020.3
20260507004021 70 276 3.0 8.0 0.00 0.00 0.00 65 1020.2
20260507003521 69 31 2.0 12.0 0.00 0.00 0.00 69 1020.3
20260507003043 69 269 4.0 12.0 0.00 0.00 0.00 69 1020.3
20260507002520 69 312 3.0 10.0 0.00 0.00 0.00 69 1020.2
20260507002021 69 305 4.0 10.0 0.00 0.00 0.00 70 1020.2
20260507001546 69 272 3.0 11.0 0.00 0.00 0.00 72 1020.2
20260507001020 69 314 6.0 11.0 0.00 0.00 0.00 70 1020.2
20260507000521 69 315 5.0 11.0 0.00 0.00 0.00 70 1020.1
20260507000042 69 308 5.0 8.0 0.00 0.00 0.00 69 1020.1
20260506235521 69 15 4.0 10.0 0.00 0.00 0.00 68 1020.1
20260506235020 69 285 5.0 10.0 0.00 0.00 0.00 70 1020.1
20260506234538 69 285 3.0 11.0 0.00 0.00 0.00 71 1020.1
20260506234022 69 336 6.0 14.0 0.00 0.00 0.00 69 1020.1
20260506233521 69 307 4.0 14.0 0.00 0.00 0.00 70 1020.0
20260506233035 69 293 4.0 10.0 0.00 0.00 0.00 69 1020.0
20260506232520 69 356 5.0 14.0 0.00 0.00 0.00 70 1020.2
20260506232020 69 297 6.0 14.0 0.00 0.00 0.00 71 1020.1
20260506231551 69 301 6.0 12.0 0.00 0.00 0.00 70 1020.1
20260506231022 69 314 5.0 12.0 0.00 0.00 0.00 72 1020.2
20260506230520 69 321 5.0 15.0 0.00 0.00 0.00 71 1020.2
20260506230055 69 304 5.0 15.0 0.00 0.00 0.00 71 1020.2
20260506225522 69 298 6.0 15.0 0.00 0.00 0.00 70 1020.2
20260506225020 69 300 5.0 14.0 0.00 0.00 0.00 71 1020.3
20260506224541 68 319 6.0 14.0 0.00 0.00 0.00 70 1020.4
20260506224021 68 311 6.0 12.0 0.00 0.00 0.00 70 1020.5
20260506223520 68 293 5.0 12.0 0.00 0.00 0.00 71 1020.4
20260506223050 68 258 7.0 16.0 0.00 0.00 0.00 71 1020.5
20260506222520 68 256 6.0 16.0 0.00 0.00 0.00 71 1020.6
20260506222019 68 332 6.0 14.0 0.00 0.00 0.00 70 1020.6
20260506221538 68 255 7.0 12.0 0.00 0.00 0.00 70 1020.6
20260506221021 68 317 6.0 14.0 0.00 0.00 0.00 69 1020.7
20260506220523 68 306 7.0 14.0 0.00 0.00 0.00 69 1020.6
20260506220037 68 261 6.0 12.0 0.00 0.00 0.00 68 1020.7
20260506215523 68 286 8.0 12.0 0.00 0.00 0.00 69 1020.8
20260506215018 68 268 4.0 13.0 0.00 0.00 0.00 69 1020.8
20260506214545 68 276 5.0 13.0 0.00 0.00 0.00 70 1020.8
20260506214020 68 261 4.0 13.0 0.00 0.00 0.00 69 1020.9
20260506213525 68 315 6.0 13.0 0.00 0.00 0.00 69 1020.9
20260506213101 68 272 7.0 13.0 0.00 0.00 0.00 68 1020.9
20260506212520 69 278 5.0 12.0 0.00 0.00 0.00 67 1021.0
20260506212021 69 233 5.0 12.0 0.00 0.00 0.00 67 1020.9
20260506211557 69 267 3.0 11.0 0.00 0.00 0.00 69 1021.1
20260506211021 68 229 5.0 13.0 0.00 0.00 0.00 68 1021.1
20260506210521 68 308 6.0 13.0 0.00 0.00 0.00 69 1021.1
20260506210041 68 298 6.0 12.0 0.00 0.00 0.00 68 1021.1
20260506205522 68 279 5.0 12.0 0.00 0.00 0.00 69 1021.1
20260506205020 68 312 7.0 12.0 0.00 0.00 0.00 68 1021.2
20260506204545 68 316 6.0 12.0 0.00 0.00 0.00 68 1021.3
20260506204020 68 256 6.0 12.0 0.00 0.00 0.00 68 1021.2
20260506203518 68 295 7.0 12.0 0.00 0.00 0.00 69 1021.2
20260506203035 68 298 6.0 11.0 0.00 0.00 0.00 68 1021.3
20260506202519 68 298 6.0 11.0 0.00 0.00 0.00 68 1021.3
20260506202022 68 280 7.0 15.0 0.00 0.00 0.00 69 1021.3
20260506201556 68 293 7.0 15.0 0.00 0.00 0.00 68 1021.3
20260506201019 68 254 6.0 14.0 0.00 0.00 0.00 69 1021.3
20260506200519 68 300 6.0 14.0 0.00 0.00 0.00 68 1021.3
20260506200044 68 309 5.0 12.0 0.00 0.00 0.00 68 1021.4
20260506195518 69 313 6.0 12.0 0.00 0.00 0.00 67 1021.4
20260506195018 69 311 7.0 12.0 0.00 0.00 0.00 66 1021.5
20260506194546 69 312 7.0 11.0 0.00 0.00 0.00 66 1021.5
20260506194017 69 278 7.0 11.0 0.00 0.00 0.00 65 1021.5
20260506193518 69 307 5.0 11.0 0.00 0.00 0.00 66 1021.6
20260506193038 69 263 5.0 10.0 0.00 0.00 0.00 65 1021.6
20260506192520 69 277 4.0 10.0 0.00 0.00 0.00 66 1021.7
20260506192019 69 317 5.0 10.0 0.00 0.00 0.00 66 1021.7
20260506191547 69 261 5.0 10.0 0.00 0.00 0.00 65 1021.7
20260506191025 69 306 5.0 11.0 0.00 0.00 0.00 65 1021.8
20260506190529 69 321 5.0 11.0 0.00 0.00 0.00 65 1021.9
20260506190043 69 304 6.0 10.0 0.00 0.00 0.00 65 1021.9
20260506185526 70 278 4.0 10.0 0.00 0.00 0.00 65 1021.9
20260506185022 69 303 5.0 10.0 0.00 0.00 0.00 65 1022.0
20260506184539 69 315 4.0 10.0 0.00 0.00 0.00 65 1021.9
20260506184021 69 268 4.0 9.0 0.00 0.00 0.00 66 1022.0
20260506183523 69 5 4.0 9.0 0.00 0.00 0.00 64 1022.0
20260506183058 69 15 5.0 9.0 0.00 0.00 0.00 65 1022.1
20260506182522 69 283 3.0 12.0 0.00 0.00 0.00 66 1022.1
20260506182023 68 277 4.0 12.0 0.00 0.00 0.00 66 1022.1
20260506181544 68 262 4.0 9.0 0.00 0.00 0.00 67 1022.1
20260506181023 68 281 4.0 9.0 0.00 0.00 0.00 66 1022.2
20260506180523 68 252 3.0 7.0 0.00 0.00 0.00 67 1022.2
20260506180048 67 277 1.0 8.0 0.00 0.00 0.00 68 1022.3
20260506175524 67 277 4.0 11.0 0.00 0.00 0.00 67 1022.3
20260506175022 67 293 5.0 11.0 0.00 0.00 0.00 67 1022.2
20260506174544 67 285 3.0 10.0 0.00 0.00 0.00 67 1022.3
20260506174022 67 271 4.0 9.0 0.00 0.00 0.00 68 1022.3
20260506173522 67 305 3.0 9.0 0.00 0.00 0.00 66 1022.4
20260506173048 68 321 3.0 9.0 0.00 0.00 0.00 64 1022.3
20260506172522 68 311 4.0 7.0 0.00 0.00 0.00 63 1022.3
20260506172022 68 288 2.0 8.0 0.00 0.00 0.00 64 1022.5
20260506171539 68 113 2.0 8.0 0.00 0.00 0.00 64 1022.4
20260506171026 68 18 2.0 8.0 0.00 0.00 0.00 63 1022.5
20260506170525 68 51 1.0 5.0 0.00 0.00 0.00 65 1022.4
20260506170106 67 0 1.0 6.0 0.00 0.00 0.00 66 1022.4
20260506165522 66 299 2.0 8.0 0.00 0.00 0.00 67 1022.4
20260506165022 66 71 2.0 8.0 0.00 0.00 0.00 67 1022.4
20260506164543 65 85 0.0 8.0 0.00 0.00 0.00 70 1022.3
20260506164027 64 0 3.0 9.0 0.00 0.00 0.00 69 1022.4
20260506163521 64 317 3.0 9.0 0.00 0.00 0.00 70 1022.4
20260506163057 64 332 3.0 9.0 0.00 0.00 0.00 69 1022.5
20260506162523 64 53 1.0 5.0 0.00 0.00 0.00 70 1022.6
20260506162026 63 24 1.0 7.0 0.00 0.00 0.00 71 1022.5
20260506161541 63 293 3.0 7.0 0.00 0.00 0.00 71 1022.6
20260506161041 64 285 2.0 7.0 0.00 0.00 0.00 71 1022.4
20260506160525 64 95 0.0 4.0 0.00 0.00 0.00 71 1022.5
20260506160048 64 77 1.0 4.0 0.00 0.00 0.00 70 1022.6
20260506155525 64 58 1.0 4.0 0.00 0.00 0.00 70 1022.5
20260506155022 64 0 0.0 4.0 0.00 0.00 0.00 70 1022.5
20260506154548 64 50 1.0 4.0 0.00 0.00 0.00 71 1022.4
20260506154023 63 4 0.0 3.0 0.00 0.00 0.00 71 1022.6
20260506153522 63 0 0.0 3.0 0.00 0.00 0.00 71 1022.5
20260506153044 63 0 0.0 4.0 0.00 0.00 0.00 72 1022.6
20260506152521 62 133 1.0 4.0 0.00 0.00 0.00 72 1022.6
20260506152023 62 48 0.0 4.0 0.00 0.00 0.00 72 1022.6
20260506151544 62 45 2.0 4.0 0.00 0.00 0.00 72 1022.7
20260506151021 62 126 1.0 3.0 0.00 0.00 0.00 72 1022.7
20260506150522 61 0 0.0 3.0 0.00 0.00 0.00 73 1022.7
20260506150039 60 0 0.0 4.0 0.00 0.00 0.00 75 1022.6
20260506145524 60 0 1.0 4.0 0.00 0.02 0.00 75 1022.7
20260506145020 60 60 1.0 5.0 0.00 0.02 0.00 76 1022.6
20260506144558 59 95 2.0 5.0 0.00 0.02 0.00 76 1022.6
20260506144024 59 112 2.0 5.0 0.00 0.02 0.00 76 1022.5
20260506143520 59 0 0.0 4.0 0.00 0.02 0.00 78 1022.5
20260506143045 58 0 1.0 4.0 0.00 0.02 0.00 78 1022.5
20260506142521 58 121 1.0 4.0 0.00 0.02 0.00 79 1022.6
20260506142026 57 79 1.0 4.0 0.00 0.02 0.00 80 1022.6
20260506141543 57 117 1.0 4.0 0.00 0.02 0.00 80 1022.4
20260506141026 56 99 1.0 4.0 0.00 0.02 0.00 81 1022.5
20260506140519 56 122 2.0 4.0 0.00 0.02 0.00 80 1022.4
20260506140045 56 81 1.0 4.0 0.00 0.02 0.00 81 1022.4
20260506135522 56 108 2.0 4.0 0.00 0.08 0.00 81 1022.4
20260506135022 56 94 1.0 3.0 0.00 0.08 0.00 82 1022.3